This demonstration page uses our WeatherBlox Daily Observations layout. Learn more.

Left ArrowRight Arrow

Hourly Observations for August 12, 2022

Temp ( °F °C ) Dew Point ( °F °C ) Humidity (%) Winds ( mph kmh ) Pressure ( in mb ) Visibility ( mi km ) Precip ( " mm )
12:53 am 00:53 Clear 66 18.9 60 15.6 81 81 NNE 3 6 30.12 1020 10 16 0.00 0.00
1:53 am 01:53 Clear 64 17.8 60 15.6 87 87 N 3 6 30.13 1020 10 16 0.00 0.00
2:53 am 02:53 Clear 61 16.1 59 15 93 93 Calm 30.13 1020 10 16 0.00 0.00
3:53 am 03:53 Clear 63 17.2 58 14.4 84 84 NNE 5 7 30.13 1020 10 16 0.00 0.00
4:53 am 04:53 Clear 62 16.7 57 13.9 84 84 ENE 6 9 30.14 1021 10 16 0.00 0.00
5:53 am 05:53 Clear 61 16.1 55 12.8 81 81 Calm 30.15 1021 10 16 0.00 0.00
6:53 am 06:53 Sunny 58 14.4 56 13.3 93 93 Calm 30.18 1022 10 16 0.00 0.00
7:53 am 07:53 Sunny 62 16.7 56 13.3 80 80 Calm 30.19 1022 10 16 0.00 0.00
8:53 am 08:53 Sunny 65 18.3 56 13.3 73 73 NNE 6 9 30.20 1023 10 16 0.00 0.00
9:53 am 09:53 Sunny 69 20.6 56 13.3 63 63 VRB 6 9 30.20 1023 10 16 0.00 0.00
10:53 am 10:53 Sunny 71 21.7 54 12.2 55 55 E 9 15 30.21 1023 10 16 0.00 0.00
11:53 am 11:53 Sunny 73 22.8 51 10.6 46 46 E 9 15 30.21 1023 10 16 0.00 0.00
12:53 pm 12:53 Sunny 75 23.9 56 13.3 51 51 NE 8 13 30.22 1023 10 16 0.00 0.00
1:53 pm 13:53 Sunny 76 24.4 55 12.8 48 48 N 8 13 30.20 1023 10 16 0.00 0.00
2:53 pm 14:53 Sunny 78 25.6 56 13.3 47 47 VRB 6 9 30.19 1023 10 16 0.00 0.00
3:53 pm 15:53 Sunny 79 26.1 56 13.3 45 45 NNE 9 15 30.18 1022 10 16 0.00 0.00
4:53 pm 16:53 Sunny 79 26.1 56 13.3 45 45 VRB 5 7 30.15 1021 10 16 0.00 0.00
5:53 pm 17:53 Sunny 77 25 56 13.3 48 48 N 6 9 30.14 1021 10 16 0.00 0.00
6:53 pm 18:53 Sunny 76 24.4 56 13.3 50 50 N 9 15 30.14 1021 10 16 0.00 0.00
7:53 pm 19:53 Sunny 72 22.2 57 13.9 59 59 NE 5 7 30.14 1021 10 16 0.00 0.00
8:53 pm 20:53 Clear 65 18.3 58 14.4 78 78 NNE 3 6 30.14 1021 10 16 0.00 0.00
9:53 pm 21:53 Clear 62 16.7 58 14.4 86 86 Calm 30.16 1021 10 16 0.00 0.00
10:53 pm 22:53 Clear 61 16.1 57 13.9 87 87 Calm 30.17 1022 10 16 0.00 0.00
11:53 pm 23:53 Clear 60 15.6 57 13.9 90 90 Calm 30.18 1022 10 16 0.00 0.00

Powered by AerisWeather